Temp
15 14 12 14 13 15 15 14 14 14 16 16 17 17 18 16 17 16 15 17 13 13 12 11 10 10 10 10 11 10 11 11 13 14 14 15 14 15 14 13 13 13 14 14
14 12 14 15 15 15 14 14 14 15 16 16 16 16 16 17 17 17 16 16 13 12 11 10 9 8 7 7 7 7 7 7 8 9 9 10 10 11 12 12 12 12 12 12
13 15 16 15 15 15 14 14 15 15 16 17 15 16 16 18 17 16 14 16 14 12 10 9 8 6 6 5 5 5 5 5 4 5 7 9 10 10 9 9 8 8 9 9
14 16 15 15 15 15 14 16 16 16 15 14 16 14 17 16 14 12 11 10 9 8 8 7 6 5 5 4 4 4 4 3 3 4 4 4 4 3 5 5 6 7 7 7
14 16 15 14 15 16 15 16 16 16 14 13 14 12 14 13 12 11 10 10 9 8 7 6 5 5 4 3 3 3 3 2 2 2 2 2 2 2 3 3 4 5 6 5
14 16 16 15 16 16 17 16 15 13 13 12 14 14 12 12 12 11 10 10 9 9 8 7 6 5 4 2 2 2 2 1 1 1 1 0 0 1 1 1 1 2 3 4
14 14 14 16 15 15 15 14 13 11 11 12 15 13 12 11 10 9 8 7 7 7 7 6 5 4 3 2 1 1 0 -0 -1 -1 -2 -1 -1 -1 -1 -0 0 1 1 2
13 13 15 16 15 14 13 13 11 12 12 12 13 12 11 11 10 9 9 8 7 6 5 4 3 2 1 1 0 -0 -1 -1 -2 -2 -2 -2 -1 -1 -1 -0 -0 0 1 1
12 13 16 16 16 15 14 13 13 12 11 11 11 11 10 10 9 9 8 8 8 7 5 4 2 1 0 -0 -1 -1 -2 -2 -2 -2 -2 -2 -2 -1 -1 -1 -1 -0 -0 1
14 13 15 15 16 16 14 13 12 9 11 11 11 11 10 11 10 10 9 8 7 7 5 3 2 1 0 -0 -1 -2 -2 -2 -2 -2 -2 -2 -2 -2 -2 -2 -1 -1 -1 -1
13 13 13 14 13 13 13 13 12 11 10 10 11 11 11 11 11 10 9 7 6 5 3 2 1 0 -0 -1 -2 -2 -2 -2 -2 -2 -2 -2 -2 -2 -2 -2 -2 -2 -2 -2
13 12 11 13 13 13 13 12 11 10 11 10 9 11 13 11 10 11 9 6 4 2 1 0 -0 -1 -0 -2 -2 -2 -2 -3 -3 -3 -3 -3 -2 -2 -2 -3 -3 -3 -3 -3
11 9 10 12 12 13 13 12 13 12 10 11 10 10 11 10 10 9 6 4 3 1 0 -1 -0 -1 -1 -2 -2 -2 -3 -3 -3 -3 -3 -3 -3 -3 -3 -3 -4 -4 -4 -3
12 10 11 12 13 12 11 12 13 12 9 10 11 11 12 10 8 7 5 2 1 1 1 1 -0 -1 -1 -2 -2 -3 -3 -4 -4 -4 -4 -4 -4 -4 -4 -4 -4 -4 -5 -4
10 10 10 11 13 12 11 11 12 11 10 9 10 10 7 8 7 4 3 3 2 1 1 0 -1 -2 -2 -3 -3 -4 -4 -4 -4 -5 -5 -5 -5 -5 -5 -5 -5 -5 -5 -5
10 9 10 10 12 12 11 10 10 11 11 11 10 7 5 4 4 4 3 2 1 1 -0 -1 -1 -2 -3 -3 -4 -5 -5 -6 -6 -6 -6 -5 -5 -5 -6 -5 -6 -6 -6 -5
9 8 7 9 10 10 9 10 10 11 10 10 7 8 4 4 3 2 1 1 1 -0 -1 -2 -3 -3 -4 -4 -4 -4 -5 -6 -6 -6 -7 -7 -5 -6 -6 -6 -6 -6 -6 -6
8 8 7 8 9 8 9 8 8 8 6 6 5 4 3 3 1 0 -1 0 -1 -2 -3 -3 -4 -4 -4 -3 -3 -4 -5 -6 -6 -7 -7 -7 -7 -7 -6 -6 -7 -7 -7 -7
9 7 7 7 7 8 8 6 4 5 6 4 4 2 3 1 1 -0 -1 -1 -4 -6 -4 -4 -4 -4 -3 -3 -3 -4 -5 -5 -6 -7 -7 -8 -7 -7 -7 -7 -7 -7 -7 -7
8 9 7 5 6 3 4 6 6 5 4 3 4 2 1 0 1 -3 -2 -4 -5 -4 -4 -4 -4 -4 -3 -3 -4 -4 -5 -5 -6 -7 -7 -7 -7 -7 -7 -8 -8 -7 -7 -7
6 6 8 6 5 6 6 5 6 4 4 2 2 3 2 0 -1 -2 -3 -5 -4 -4 -4 -4 -5 -5 -5 -4 -4 -5 -5 -5 -6 -6 -7 -7 -7 -7 -7 -8 -8 -8 -8 -8
8 7 5 4 4 6 4 4 5 2 -0 1 -1 -2 1 -1 -2 -3 -4 -4 -4 -3 -4 -4 -5 -5 -5 -5 -5 -5 -5 -5 -5 -6 -6 -7 -7 -8 -8 -8 -8 -8 -8 -8
7 5 4 6 5 1 2 -0 1 2 0 0 -1 -3 -1 -2 -2 -2 -3 -3 -3 -4 -4 -5 -5 -5 -6 -5 -5 -5 -5 -5 -5 -6 -6 -7 -7 -8 -8 -8 -8 -7 -8 -8
5 6 3 4 2 1 1 1 1 -0 -1 -3 -3 -3 -3 -3 -3 -3 -3 -3 -4 -4 -5 -5 -6 -6 -6 -6 -6 -6 -5 -5 -5 -6 -6 -6 -7 -8 -8 -8 -8 -8 -8 -8
4 6 4 3 2 2 2 1 0 -1 -1 -1 -3 -3 -4 -3 -3 -3 -3 -4 -4 -5 -5 -5 -6 -6 -7 -6 -6 -5 -5 -5 -6 -6 -6 -7 -7 -7 -8 -9 -8 -8 -8 -8
2 4 4 3 3 2 2 0 -1 -1 -2 -3 -3 -3 -3 -3 -4 -3 -4 -4 -5 -6 -6 -6 -7 -7 -7 -7 -6 -6 -5 -5 -6 -7 -7 -7 -8 -8 -9 -9 -9 -9 -9 -8
Height
784 795 802 793 796 793 795 797 801 797 785 784 775 764 763 763 759 756 752 749 752 755 757 757 760 760 758 750 749 749 750 748 744 741 740 740 742 743 744 744 746 746 747 746
790 798 788 786 789 792 793 797 798 789 780 780 774 764 761 759 756 752 748 747 751 752 758 759 761 762 763 763 761 761 759 755 751 747 746 745 744 744 743 742 743 743 742 742
791 784 779 786 789 791 790 793 789 790 780 775 776 765 759 753 752 751 752 745 755 763 766 771 771 769 767 768 768 767 768 765 761 753 748 744 741 740 741 740 741 741 741 741
786 776 779 784 786 785 793 781 778 780 787 789 774 779 759 759 767 769 771 772 774 776 779 781 780 777 774 772 770 769 769 770 764 758 749 744 745 743 742 742 738 736 736 736
782 773 778 782 778 777 782 774 776 776 783 785 780 795 767 768 774 781 780 781 783 783 782 786 786 785 782 777 772 771 768 770 764 759 752 748 748 744 738 739 736 733 732 732
775 768 769 771 768 769 768 774 777 782 785 793 771 781 780 776 776 782 784 783 786 790 788 787 789 787 786 780 776 771 767 767 765 760 755 755 749 741 737 738 735 731 729 726
772 772 765 764 774 767 772 779 789 797 799 788 769 778 776 780 783 788 792 792 790 794 792 787 787 787 788 783 776 769 770 765 768 764 763 753 748 744 742 738 734 731 728 726
777 779 762 756 764 769 772 776 798 788 789 787 775 777 773 779 783 787 788 786 789 793 794 794 793 786 784 783 783 779 777 775 773 764 754 753 752 747 742 737 733 731 728 724
777 771 751 751 752 756 768 777 772 785 788 791 780 780 781 781 784 785 785 785 785 786 792 795 797 791 790 789 788 782 778 778 773 761 760 758 754 747 741 735 731 729 725 720
758 766 754 751 750 753 758 765 784 801 793 784 774 771 777 770 775 779 780 782 786 789 796 798 797 793 796 796 794 788 785 779 771 766 763 758 755 748 740 734 728 725 721 716
754 760 761 757 760 763 764 768 772 781 793 786 779 766 755 757 760 769 776 781 785 792 796 797 796 799 798 796 791 789 788 777 768 766 763 761 753 745 737 732 726 722 716 711
753 760 770 760 755 754 754 760 766 783 778 783 786 762 747 751 758 762 772 781 789 795 798 799 800 797 794 792 788 786 779 771 767 768 763 758 751 741 739 732 725 718 712 706
757 775 773 760 763 755 756 755 755 760 771 764 772 763 750 755 760 766 778 787 795 799 801 803 801 798 795 793 789 787 781 775 774 771 766 756 749 745 739 731 724 717 710 704
750 763 756 751 747 752 758 754 752 758 777 764 759 758 751 761 769 776 784 793 798 801 802 801 800 800 799 796 795 792 784 779 778 769 764 760 752 746 740 733 726 719 713 706
757 761 760 751 744 747 753 752 754 757 763 771 758 757 771 767 772 783 788 793 798 800 803 804 803 803 803 800 798 792 785 781 778 777 770 756 751 749 742 735 728 723 717 711
754 763 756 755 749 746 754 757 757 752 752 752 755 770 778 780 780 785 789 793 798 802 804 805 805 805 806 806 802 795 793 790 784 775 764 761 756 749 744 740 734 728 721 714
755 764 772 764 757 756 762 751 750 743 750 752 769 759 776 783 787 792 796 797 800 804 808 809 810 811 810 807 803 799 794 789 781 772 769 764 757 754 750 742 736 729 725 717
757 759 771 765 761 772 755 757 757 756 766 764 766 771 777 781 791 797 799 799 802 805 808 811 813 813 811 808 804 799 794 787 780 775 773 765 761 758 752 747 743 739 732 728
749 761 766 770 768 758 757 764 773 768 762 769 772 779 781 790 795 798 799 801 805 807 809 812 813 811 808 805 801 797 793 788 783 781 776 772 768 763 759 757 753 748 743 738
747 746 760 778 771 799 773 762 761 766 776 769 769 778 784 792 792 802 800 803 807 808 810 812 811 809 806 805 802 798 796 794 791 785 784 780 774 770 769 767 763 756 751 747
754 758 751 768 773 761 758 763 762 779 774 770 772 775 780 786 789 793 800 805 807 809 811 812 812 810 810 808 805 802 800 798 797 792 790 784 780 779 777 775 770 764 758 754
738 746 764 777 779 763 761 765 765 773 775 773 779 782 778 784 790 795 800 805 808 810 812 812 812 813 812 810 807 805 803 803 800 798 794 789 788 786 784 780 776 771 766 761
742 745 756 751 756 766 765 770 768 768 772 775 780 782 780 786 790 795 799 803 807 810 812 813 814 815 813 812 810 808 808 805 802 800 798 797 795 792 789 784 782 778 774 769
740 739 752 753 763 766 766 768 768 771 774 778 780 783 785 789 793 797 801 805 809 811 813 815 816 816 816 814 813 812 809 806 804 804 804 803 800 797 794 792 789 784 781 778
739 738 747 756 761 763 764 765 769 775 777 780 784 786 789 792 797 800 803 807 810 813 815 817 818 818 818 817 815 812 810 809 809 810 809 806 804 802 801 798 796 793 791 788
743 741 745 750 747 753 758 765 771 776 780 783 785 789 793 795 798 802 806 809 812 815 817 818 819 820 821 820 818 815 813 813 814 814 813 812 810 808 806 805 802 801 800 797
Wind_Speed
4 4 7 14 9 4 2 3 5 5 10 8 15 20 14 8 7 10 8 7 8 11 11 21 22 22 25 27 25 23 20 19 16 16 14 10 14 10 12 10 10 10 10 12
2 5 11 7 6 6 7 10 10 6 11 7 12 17 10 4 7 6 9 5 11 10 10 14 20 26 29 27 29 27 24 22 21 17 14 7 11 6 11 9 14 13 16 15
6 6 7 8 6 8 10 8 11 11 6 5 7 13 10 8 8 8 13 4 9 12 13 13 19 22 27 30 29 28 26 22 24 19 17 15 9 14 11 22 21 21 20 18
6 10 12 7 6 7 9 9 11 9 4 9 4 12 17 8 14 15 15 15 14 14 14 13 16 20 22 22 27 29 27 28 25 25 23 22 16 11 15 24 27 26 23 20
7 3 3 6 14 7 8 8 11 13 4 5 4 3 5 8 9 10 12 14 14 12 12 11 12 15 18 23 24 26 27 29 30 29 27 23 20 17 20 24 27 27 26 23
7 3 4 7 10 10 6 4 0 3 2 6 11 9 4 3 1 8 11 14 14 12 12 13 14 14 15 20 25 25 29 28 32 30 27 23 22 24 22 23 22 23 24 28
2 11 7 7 6 5 5 3 2 2 0 5 2 1 1 5 8 8 9 8 11 9 7 9 10 16 19 20 24 27 28 28 30 26 23 25 25 22 17 18 19 22 23 22
3 6 6 4 8 8 6 8 5 4 3 4 4 6 4 9 11 11 9 10 8 5 6 8 12 14 21 24 21 23 22 20 22 23 26 24 21 19 19 17 20 22 22 24
6 6 1 3 3 7 3 3 3 1 1 1 4 1 4 9 9 9 8 6 7 7 4 3 6 10 13 17 21 25 24 22 22 24 22 21 22 21 21 21 20 21 22 23
4 4 2 2 2 2 6 7 3 2 3 5 4 4 4 16 14 13 8 7 5 6 5 3 5 11 10 12 14 14 15 14 18 20 19 20 21 21 21 21 21 22 22 24
5 6 2 2 5 8 3 3 3 4 4 4 2 5 5 15 17 14 12 8 7 7 4 5 8 7 7 11 13 13 14 17 22 24 22 20 21 21 22 21 21 22 23 23
0 3 3 7 4 3 3 7 7 4 5 4 2 7 4 7 14 16 13 10 8 6 5 5 9 12 14 17 17 19 21 22 24 22 22 21 23 25 23 23 24 25 24 24
7 2 1 4 2 2 4 4 4 2 3 8 6 4 2 8 11 12 12 10 8 7 5 4 4 11 14 16 18 20 20 20 19 19 19 22 23 26 25 26 27 27 28 27
3 4 6 8 4 3 4 4 2 5 3 5 8 5 0 10 12 11 11 10 8 6 5 5 7 10 13 14 15 15 18 20 19 20 20 19 24 26 29 29 30 31 31 31
5 6 4 3 2 3 3 4 6 7 9 7 6 12 1 3 10 11 11 10 8 6 5 5 6 8 11 12 14 16 19 20 18 16 19 27 29 29 29 31 33 34 34 33
2 3 2 3 2 3 10 8 8 10 11 12 4 3 5 6 10 9 8 8 6 5 5 5 6 9 7 8 9 13 13 13 14 19 24 27 30 32 32 33 31 31 33 35
5 4 3 3 4 2 7 11 16 11 1 1 5 4 12 7 9 7 6 5 6 6 5 4 4 3 4 6 9 12 17 17 21 26 24 25 30 31 32 33 37 37 37 38
5 7 3 2 3 5 1 3 2 3 2 1 4 7 6 8 7 6 4 6 7 7 6 4 2 1 4 8 11 14 17 22 24 27 24 29 31 31 34 35 35 36 37 37
5 5 3 4 5 3 2 2 3 3 4 3 6 7 9 9 7 2 5 5 4 4 6 5 2 5 9 12 14 17 18 24 25 23 27 27 29 32 34 34 33 32 32 34
5 7 4 3 4 6 5 3 2 3 5 5 5 10 13 10 3 3 8 7 7 9 6 7 11 13 16 14 16 18 19 19 21 26 24 25 30 34 33 30 29 32 32 30
5 3 8 2 3 5 4 4 1 4 6 3 4 4 11 6 3 8 11 6 13 12 11 11 13 15 14 15 16 18 18 19 20 25 26 31 31 30 30 27 30 32 31 29
7 6 3 3 2 7 5 3 6 3 2 3 2 2 4 7 11 12 10 10 12 11 11 10 11 12 12 14 16 17 18 16 18 20 27 30 30 29 29 27 27 29 30 28
1 5 5 5 4 1 2 3 1 2 3 3 3 1 9 11 11 10 10 9 11 12 12 10 9 9 12 12 13 16 16 16 20 22 20 24 26 24 26 28 26 27 27 30
1 2 4 3 2 4 4 4 4 4 2 3 5 6 7 10 9 10 9 8 11 12 12 11 10 10 10 11 12 13 16 18 21 20 17 17 19 23 24 26 26 28 29 27
3 5 7 3 3 4 4 4 6 5 8 9 6 5 8 11 9 9 9 10 12 12 11 10 9 10 9 13 16 16 16 17 17 17 16 18 21 20 22 27 28 27 30 30
1 5 4 4 8 4 5 7 10 9 8 8 11 8 8 11 9 13 10 13 13 11 11 10 10 11 12 13 17 18 19 17 15 14 17 19 19 20 22 22 24 24 24 27
Wind_Direction
171 158 198 220 207 213 328 265 254 267 279 287 277 283 294 287 306 322 300 315 83 77 62 55 44 48 53 64 63 57 49 42 41 32 20 8 1 359 3 356 1 347 335 329
34 232 227 214 228 230 261 273 276 269 259 256 285 287 287 255 269 270 291 327 126 116 87 78 63 51 42 43 45 40 36 31 32 33 25 10 340 329 350 345 342 338 337 331
179 223 220 207 242 252 250 256 271 268 267 239 270 290 305 310 281 9 6 22 86 72 75 58 48 49 49 39 32 28 21 20 18 22 18 13 15 351 348 334 337 333 332 328
237 235 238 216 222 224 256 247 264 294 321 292 102 301 301 352 40 44 39 50 57 60 56 49 43 42 38 32 30 24 16 6 7 10 14 18 12 353 330 330 325 326 329 327
232 243 218 217 239 224 249 241 274 292 270 308 183 220 252 41 48 54 62 63 59 64 66 54 44 42 38 31 26 16 14 3 3 2 7 4 351 344 337 329 328 328 326 324
228 243 200 221 258 236 247 288 88 21 80 277 288 183 278 11 145 92 63 63 60 41 49 47 35 29 24 23 19 17 11 2 357 356 358 353 349 346 339 331 329 329 327 323
209 243 245 206 235 268 179 145 273 308 98 238 239 237 213 134 103 111 93 69 62 38 36 44 27 15 8 11 14 13 4 359 350 347 344 352 348 343 333 328 325 322 320 318
177 315 190 178 181 194 189 169 175 235 217 263 320 253 241 146 141 139 144 129 109 77 42 28 11 18 8 5 4 7 358 348 343 348 351 343 337 331 326 325 321 312 308 306
186 242 215 200 160 143 184 163 194 124 286 267 225 193 221 170 176 185 171 163 157 148 115 61 13 27 11 355 348 357 356 347 344 351 342 337 333 333 327 324 318 310 306 305
242 285 219 212 95 9 159 162 79 10 249 241 241 235 229 192 201 199 200 202 173 138 125 95 37 30 7 350 342 348 342 338 345 345 343 340 336 336 334 331 325 319 315 311
178 188 204 99 207 181 145 189 86 139 171 216 287 254 203 196 198 194 195 182 160 121 101 52 35 19 3 357 360 353 343 355 356 352 347 342 346 347 347 343 338 334 329 325
169 140 181 226 297 246 181 190 157 159 222 237 185 259 247 194 166 179 185 145 118 96 68 44 20 9 8 5 2 353 356 360 358 349 352 351 356 358 353 352 350 351 346 342
194 227 74 312 338 325 227 202 195 141 129 220 231 260 211 105 151 165 139 121 108 102 78 44 12 21 13 7 1 352 354 356 352 351 354 4 4 3 0 2 4 1 358 355
104 179 192 218 195 142 181 190 204 179 188 258 236 283 296 155 156 135 120 104 102 96 74 41 29 21 12 6 357 349 358 1 356 5 6 8 11 12 11 10 9 9 10 7
163 227 205 232 206 172 185 199 216 236 205 240 267 250 186 182 148 128 121 125 117 94 71 54 39 24 9 3 354 358 4 2 1 3 16 24 22 18 15 15 14 15 15 11
167 236 51 317 277 252 258 231 254 256 253 255 225 194 130 96 111 115 117 119 115 109 83 57 36 19 2 3 13 15 7 1 16 24 25 30 32 27 21 19 16 15 14 13
154 121 118 257 232 256 266 206 230 239 196 218 199 200 151 148 129 125 116 134 139 114 101 72 38 344 4 27 5 25 22 30 36 37 27 28 37 32 24 22 24 18 14 14
165 131 169 200 140 234 3 41 351 151 98 22 88 128 132 138 103 112 129 139 122 114 99 74 106 117 39 45 44 47 35 35 38 38 28 34 38 35 34 29 22 19 18 14
208 152 175 179 203 327 317 238 176 138 252 197 147 125 132 125 117 118 118 108 115 108 112 134 21 18 47 46 52 51 43 38 39 36 35 34 40 42 38 29 21 19 18 15
160 189 156 149 174 216 238 147 124 121 286 174 150 160 161 153 204 210 143 125 124 132 125 79 64 57 55 52 59 56 49 45 39 42 40 44 45 49 40 30 22 27 23 16
163 165 192 136 211 283 175 159 158 101 242 145 126 148 172 197 208 141 132 124 142 133 114 91 71 56 54 62 65 58 55 50 50 55 54 55 51 46 43 31 29 26 24 19
165 154 173 102 120 264 144 95 175 187 41 118 81 250 210 132 130 136 140 152 161 151 119 99 77 58 61 64 66 58 55 62 63 55 54 55 52 44 41 37 30 29 27 25
203 172 175 176 209 226 78 134 119 120 135 171 134 133 137 137 135 131 132 132 117 112 106 96 85 71 59 61 65 59 54 64 65 59 53 51 55 48 44 40 35 33 32 30
25 130 102 130 170 167 138 97 75 51 106 113 117 114 117 120 120 117 115 115 114 112 106 100 87 71 56 59 65 68 67 63 64 55 49 49 48 49 46 44 41 38 35 35
196 129 134 89 136 131 193 142 120 111 118 119 90 109 122 119 115 119 114 113 112 108 106 101 94 80 62 68 67 69 70 69 57 58 55 53 56 52 51 53 45 43 43 42
186 155 168 211 171 145 154 145 131 144 145 142 127 113 111 120 120 115 109 111 115 115 116 106 96 86 77 78 72 71 68 68 71 60 59 60 59 60 56 54 54 52 49 47